• In Deutschland
  • Länderverzeichnis
  • Für 7 Tage
  • Wassertemperatur
  • Satellitenkarten
  • Wetterkarte
  • Widgets
  • user-avatar
    Anmelden

    Stündliche Wetter Muiinga

    Heute, 20 August, Montag

    Zeit Temperatur Niederschläge Wind Luftdruck Luftfeuchtigkeit
    00:00 +22°C° 0 mm 1 m/S 630 mmHg 45%
    01:00 +22°C° 0 mm 1 m/S 629 mmHg 47%
    02:00 +21°C° 0 mm 1 m/S 629 mmHg 53%
    03:00 +20°C° 0 mm 1 m/S 629 mmHg 55%
    04:00 +20°C° 0 mm 1 m/S 629 mmHg 56%
    05:00 +19°C° 0 mm 1 m/S 629 mmHg 57%
    06:00 +21°C° 0 mm 1 m/S 630 mmHg 53%
    07:00 +21°C° 0 mm 2 m/S 630 mmHg 48%
    08:00 +23°C° 0 mm 2 m/S 631 mmHg 45%
    09:00 +25°C° 0 mm 2 m/S 632 mmHg 40%
    10:00 +26°C° 0 mm 3 m/S 632 mmHg 36%
    11:00 +28°C° 0 mm 3 m/S 632 mmHg 32%
    12:00 +28°C° 0 mm 2 m/S 632 mmHg 31%
    13:00 +29°C° 0 mm 2 m/S 631 mmHg 29%
    14:00 +28°C° 0 mm 2 m/S 631 mmHg 32%
    15:00 +28°C° 0 mm 1 m/S 630 mmHg 33%
    16:00 +27°C° 0 mm 1 m/S 630 mmHg 34%
    17:00 +27°C° 0 mm 1 m/S 630 mmHg 34%
    18:00 +26°C° 0 mm 1 m/S 630 mmHg 37%
    19:00 +25°C° 0 mm 1 m/S 630 mmHg 39%
    20:00 +24°C° 0 mm 1 m/S 630 mmHg 41%
    21:00 +24°C° 0 mm 1 m/S 630 mmHg 42%
    22:00 +23°C° 0 mm 1 m/S 630 mmHg 44%
    23:00 +23°C° 0 mm 1 m/S 630 mmHg 45%

    Morgen, 21 August, Dienstag

    Zeit Temperatur Niederschläge Wind Luftdruck Luftfeuchtigkeit
    00:00 +22°C° 0 mm 1 m/S 630 mmHg 47%
    01:00 +22°C° 0 mm 1 m/S 629 mmHg 49%
    02:00 +21°C° 0 mm 1 m/S 629 mmHg 51%
    03:00 +21°C° 0 mm 1 m/S 629 mmHg 53%
    04:00 +20°C° 0 mm 1 m/S 629 mmHg 55%
    05:00 +20°C° 0 mm 1 m/S 629 mmHg 57%
    06:00 +21°C° 0 mm 1 m/S 629 mmHg 53%
    07:00 +22°C° 0 mm 1 m/S 630 mmHg 49%
    08:00 +23°C° 0 mm 1 m/S 631 mmHg 46%
    09:00 +25°C° 0 mm 2 m/S 632 mmHg 40%
    10:00 +27°C° 0 mm 2 m/S 632 mmHg 35%
    11:00 +29°C° 0 mm 2 m/S 633 mmHg 30%
    12:00 +29°C° 0 mm 2 m/S 632 mmHg 29%
    13:00 +29°C° 0 mm 1 m/S 632 mmHg 29%
    14:00 +29°C° 0 mm 1 m/S 631 mmHg 29%
    15:00 +29°C° 0 mm 1 m/S 630 mmHg 30%
    16:00 +28°C° 0 mm 1 m/S 630 mmHg 30%
    17:00 +28°C° 0 mm 1 m/S 630 mmHg 31%
    18:00 +27°C° 0 mm 1 m/S 630 mmHg 33%
    19:00 +26°C° 0 mm 1 m/S 630 mmHg 35%
    20:00 +25°C° 0 mm 1 m/S 630 mmHg 37%
    21:00 +24°C° 0 mm 1 m/S 630 mmHg 39%
    22:00 +24°C° 0 mm 1 m/S 630 mmHg 41%
    23:00 +23°C° 0 mm 1 m/S 631 mmHg 44%

    übermorgen, 22 August, Mittwoch

    Zeit Temperatur Niederschläge Wind Luftdruck Luftfeuchtigkeit
    00:00 +22°C° 0 mm 1 m/S 630 mmHg 46%
    01:00 +21°C° 0 mm 1 m/S 629 mmHg 49%
    02:00 +21°C° 0 mm 1 m/S 629 mmHg 52%
    03:00 +20°C° 0 mm 1 m/S 628 mmHg 54%
    04:00 +19°C° 0 mm 1 m/S 628 mmHg 56%
    05:00 +17°C° 0 mm 0 m/S 628 mmHg 58%
    06:00 +19°C° 0 mm 0 m/S 629 mmHg 53%
    07:00 +20°C° 0 mm 0 m/S 630 mmHg 48%
    08:00 +22°C° 0 mm 0 m/S 631 mmHg 43%
    09:00 +26°C° 0 mm 1 m/S 632 mmHg 38%
    10:00 +28°C° 0 mm 2 m/S 632 mmHg 34%
    11:00 +30°C° 0 mm 2 m/S 633 mmHg 29%
    12:00 +30°C° 0 mm 2 m/S 632 mmHg 28%
    13:00 +31°C° 0 mm 2 m/S 631 mmHg 27%
    14:00 +31°C° 0 mm 1 m/S 631 mmHg 26%
    15:00 +30°C° 0 mm 1 m/S 630 mmHg 27%
    16:00 +29°C° 0 mm 1 m/S 630 mmHg 28%
    17:00 +29°C° 0 mm 1 m/S 629 mmHg 29%
    18:00 +28°C° 0 mm 1 m/S 629 mmHg 32%
    19:00 +27°C° 0 mm 1 m/S 630 mmHg 34%
    20:00 +26°C° 0 mm 1 m/S 630 mmHg 36%
    21:00 +25°C° 0,1 mm 1 m/S 630 mmHg 39%
    22:00 +24°C° 0,1 mm 1 m/S 630 mmHg 42%
    23:00 +23°C° 0,1 mm 1 m/S 630 mmHg 46%

    23 August, Donnerstag

    Zeit Temperatur Niederschläge Wind Luftdruck Luftfeuchtigkeit
    00:00 +23°C° 0 mm 1 m/S 630 mmHg 48%
    01:00 +22°C° 0 mm 1 m/S 629 mmHg 49%
    02:00 +20°C° 0 mm 0 m/S 629 mmHg 51%
    03:00 +19°C° 0 mm 0 m/S 628 mmHg 53%
    04:00 +18°C° 0 mm 0 m/S 628 mmHg 55%
    05:00 +18°C° 0 mm 0 m/S 628 mmHg 57%
    06:00 +20°C° 0 mm 0 m/S 629 mmHg 51%
    07:00 +21°C° 0 mm 0 m/S 630 mmHg 46%
    08:00 +23°C° 0 mm 0 m/S 631 mmHg 41%
    09:00 +27°C° 0 mm 1 m/S 631 mmHg 37%
    10:00 +28°C° 0 mm 2 m/S 632 mmHg 33%
    11:00 +30°C° 0 mm 3 m/S 632 mmHg 29%
    12:00 +29°C° 0 mm 3 m/S 631 mmHg 29%
    13:00 +29°C° 0 mm 3 m/S 631 mmHg 29%
    14:00 +29°C° 0 mm 3 m/S 630 mmHg 30%
    15:00 +28°C° 0 mm 2 m/S 629 mmHg 32%
    16:00 +27°C° 0 mm 2 m/S 629 mmHg 35%
    17:00 +26°C° 0 mm 2 m/S 628 mmHg 38%
    18:00 +26°C° 0 mm 1 m/S 629 mmHg 41%
    19:00 +25°C° 0 mm 1 m/S 629 mmHg 44%
    20:00 +22°C° 0 mm 0 m/S 629 mmHg 47%
    21:00 +21°C° 0 mm 0 m/S 629 mmHg 50%
    22:00 +20°C° 0 mm 0 m/S 629 mmHg 53%
    23:00 +19°C° 0 mm 0 m/S 629 mmHg 56%

    24 August, Freitag

    Zeit Temperatur Niederschläge Wind Luftdruck Luftfeuchtigkeit
    00:00 +19°C° 0 mm 0 m/S 629 mmHg 57%
    01:00 +21°C° 0 mm 1 m/S 628 mmHg 58%
    02:00 +20°C° 0 mm 1 m/S 628 mmHg 59%
    03:00 +20°C° 0 mm 1 m/S 627 mmHg 62%
    04:00 +19°C° 0 mm 1 m/S 627 mmHg 64%
    05:00 +16°C° 0 mm 0 m/S 627 mmHg 66%
    06:00 +18°C° 0 mm 0 m/S 629 mmHg 59%
    07:00 +20°C° 0 mm 0 m/S 630 mmHg 52%
    08:00 +22°C° 0 mm 0 m/S 631 mmHg 46%
    09:00 +26°C° 0,1 mm 1 m/S 631 mmHg 43%
    10:00 +27°C° 0,1 mm 2 m/S 631 mmHg 40%
    11:00 +28°C° 0,1 mm 2 m/S 632 mmHg 37%
    12:00 +28°C° 0 mm 2 m/S 631 mmHg 36%
    13:00 +28°C° 0 mm 3 m/S 630 mmHg 34%
    14:00 +29°C° 0 mm 3 m/S 629 mmHg 33%
    15:00 +28°C° 0 mm 2 m/S 629 mmHg 34%
    16:00 +28°C° 0 mm 2 m/S 629 mmHg 36%
    17:00 +27°C° 0 mm 2 m/S 628 mmHg 37%
    18:00 +26°C° 0 mm 1 m/S 629 mmHg 39%
    19:00 +25°C° 0 mm 1 m/S 629 mmHg 42%
    20:00 +24°C° 0 mm 1 m/S 629 mmHg 44%
    21:00 +23°C° 0 mm 1 m/S 629 mmHg 46%
    22:00 +23°C° 0 mm 1 m/S 629 mmHg 48%
    23:00 +22°C° 0 mm 1 m/S 629 mmHg 49%

    25 August, Samstag

    Zeit Temperatur Niederschläge Wind Luftdruck Luftfeuchtigkeit
    00:00 +22°C° 0 mm 1 m/S 629 mmHg 51%
    01:00 +21°C° 0 mm 1 m/S 628 mmHg 53%
    02:00 +21°C° 0 mm 1 m/S 628 mmHg 54%
    03:00 +20°C° 0 mm 1 m/S 628 mmHg 57%
    04:00 +18°C° 0 mm 0 m/S 628 mmHg 59%
    05:00 +17°C° 0 mm 0 m/S 628 mmHg 61%
    06:00 +21°C° 0 mm 1 m/S 629 mmHg 54%
    07:00 +21°C° 0 mm 2 m/S 630 mmHg 47%
    08:00 +24°C° 0 mm 2 m/S 631 mmHg 40%
    09:00 +26°C° 0 mm 2 m/S 632 mmHg 35%
    10:00 +28°C° 0 mm 2 m/S 632 mmHg 30%
    11:00 +30°C° 0 mm 2 m/S 633 mmHg 25%
    12:00 +30°C° 0 mm 2 m/S 632 mmHg 24%
    13:00 +31°C° 0 mm 2 m/S 631 mmHg 23%
    14:00 +31°C° 0 mm 2 m/S 630 mmHg 22%
    15:00 +31°C° 0 mm 2 m/S 630 mmHg 22%
    16:00 +30°C° 0 mm 2 m/S 629 mmHg 23%
    17:00 +30°C° 0 mm 2 m/S 629 mmHg 24%
    18:00 +28°C° 0 mm 1 m/S 629 mmHg 26%
    19:00 +27°C° 0 mm 1 m/S 629 mmHg 28%
    20:00 +26°C° 0 mm 1 m/S 630 mmHg 31%
    21:00 +25°C° 0 mm 1 m/S 630 mmHg 34%
    22:00 +24°C° 0 mm 1 m/S 630 mmHg 38%
    23:00 +23°C° 0 mm 1 m/S 630 mmHg 41%
    Mehr zeigen